Time,TemperatureF,DewpointF,PressureIn,WindDirection,WindDirectionDegrees,WindSpeedMPH,WindSpeedGustMPH,Humidity,HourlyPrecipIn,Conditions,Clouds,dailyrainin,SoftwareType,DateUTC
2013-01-15 00:03:00,0.0,-17.7,29.90,ESE,119,0.0,0.0,42,0.00,,CLR,0.00,VWS V13.01,2013-01-15 07:03:00,
2013-01-15 00:08:00,-0.2,-17.8,29.90,ESE,119,0.0,0.0,42,0.00,,CLR,0.00,VWS V13.01,2013-01-15 07:08:00,
2013-01-15 00:13:00,-0.4,-18.0,29.90,ESE,119,0.0,0.0,42,0.00,,CLR,0.00,VWS V13.01,2013-01-15 07:13:00,
2013-01-15 00:18:00,-0.6,-18.2,29.90,ESE,119,0.0,0.0,42,0.00,,CLR,0.00,VWS V13.01,2013-01-15 07:18:00,
2013-01-15 00:23:00,-0.6,-18.2,29.90,ESE,119,0.0,0.0,42,0.00,,CLR,0.00,VWS V13.01,2013-01-15 07:23:00,
2013-01-15 00:28:00,-0.8,-18.3,29.90,ESE,119,0.0,0.0,42,0.00,,CLR,0.00,VWS V13.01,2013-01-15 07:28:00,
2013-01-15 00:33:00,-0.9,-18.5,29.90,ESE,119,0.0,0.0,42,0.00,,CLR,0.00,VWS V13.01,2013-01-15 07:33:00,
2013-01-15 00:38:00,-1.1,-18.7,29.90,ESE,119,0.0,0.0,42,0.00,,CLR,0.00,VWS V13.01,2013-01-15 07:38:00,
2013-01-15 00:43:00,-1.3,-18.8,29.90,ESE,119,0.0,0.0,42,0.00,,CLR,0.00,VWS V13.01,2013-01-15 07:43:00,
2013-01-15 00:49:00,-1.3,-18.8,29.90,ESE,119,0.0,0.0,42,0.00,,CLR,0.00,VWS V13.01,2013-01-15 07:49:00,
2013-01-15 00:54:00,-1.3,-18.8,29.90,ESE,119,0.0,0.0,42,0.00,,CLR,0.00,VWS V13.01,2013-01-15 07:54:00,
2013-01-15 00:59:00,-1.5,-19.0,29.90,ESE,119,0.0,0.0,42,0.00,,CLR,0.00,VWS V13.01,2013-01-15 07:59:00,
2013-01-15 01:04:00,-1.7,-19.1,29.90,ESE,119,0.0,0.0,42,0.00,,CLR,0.00,VWS V13.01,2013-01-15 08:04:00,
2013-01-15 01:09:00,-1.7,-19.1,29.90,ESE,119,0.0,0.0,42,0.00,,CLR,0.00,VWS V13.01,2013-01-15 08:09:00,
2013-01-15 01:14:00,-1.8,-19.3,29.90,ESE,119,0.0,0.0,42,0.00,,CLR,0.00,VWS V13.01,2013-01-15 08:14:00,
2013-01-15 01:19:00,-1.8,-19.3,29.90,ESE,119,0.0,0.0,42,0.00,,CLR,0.00,VWS V13.01,2013-01-15 08:19:00,
2013-01-15 01:24:00,-2.0,-19.5,29.90,ESE,119,0.0,0.0,42,0.00,,CLR,0.00,VWS V13.01,2013-01-15 08:24:00,
2013-01-15 01:29:00,-2.2,-19.6,29.90,ESE,119,0.0,0.0,42,0.00,,CLR,0.00,VWS V13.01,2013-01-15 08:29:00,
2013-01-15 01:34:00,-2.2,-19.6,29.90,ESE,119,0.0,0.0,42,0.00,,CLR,0.00,VWS V13.01,2013-01-15 08:34:00,
2013-01-15 01:39:00,-2.2,-19.6,29.90,ESE,119,0.0,0.0,42,0.00,,CLR,0.00,VWS V13.01,2013-01-15 08:39:00,
2013-01-15 01:44:00,-2.4,-19.8,29.90,ESE,119,0.0,0.0,42,0.00,,CLR,0.00,VWS V13.01,2013-01-15 08:44:00,
2013-01-15 01:49:00,-2.4,-19.8,29.90,ESE,119,0.0,0.0,42,0.00,,CLR,0.00,VWS V13.01,2013-01-15 08:49:00,
2013-01-15 01:54:00,-2.6,-20.0,29.90,ESE,119,0.0,0.0,42,0.00,,CLR,0.00,VWS V13.01,2013-01-15 08:54:00,
2013-01-15 01:59:00,-2.6,-20.0,29.90,ESE,119,2.7,2.7,42,0.00,,CLR,0.00,VWS V13.01,2013-01-15 08:59:00,
2013-01-15 02:04:00,-2.6,-20.0,29.90,ESE,119,2.7,2.7,42,0.00,,CLR,0.00,VWS V13.01,2013-01-15 09:04:00,
2013-01-15 02:09:00,-2.6,-20.0,29.90,ESE,119,0.0,3.1,42,0.00,,CLR,0.00,VWS V13.01,2013-01-15 09:09:00,
2013-01-15 02:14:00,-2.7,-20.1,29.90,ESE,119,0.0,3.1,42,0.00,,CLR,0.00,VWS V13.01,2013-01-15 09:14:00,
2013-01-15 02:19:00,-2.7,-20.1,29.90,ESE,119,2.7,3.1,42,0.00,,CLR,0.00,VWS V13.01,2013-01-15 09:19:00,
2013-01-15 02:24:00,-2.9,-20.3,29.90,ESE,120,0.0,3.1,42,0.00,,CLR,0.00,VWS V13.01,2013-01-15 09:24:00,
2013-01-15 02:29:00,-2.9,-20.3,29.90,ESE,119,0.0,3.1,42,0.00,,CLR,0.00,VWS V13.01,2013-01-15 09:29:00,
2013-01-15 02:34:00,-3.1,-20.5,29.90,ESE,119,0.0,0.0,42,0.00,,CLR,0.00,VWS V13.01,2013-01-15 09:34:00,
2013-01-15 02:39:00,-3.1,-20.5,29.90,ESE,119,0.0,0.0,42,0.00,,CLR,0.00,VWS V13.01,2013-01-15 09:39:00,
2013-01-15 02:44:00,-3.1,-20.5,29.90,ESE,119,0.0,0.0,42,0.00,,CLR,0.00,VWS V13.01,2013-01-15 09:44:00,
2013-01-15 02:49:00,-3.1,-20.5,29.90,ESE,119,0.0,0.0,42,0.00,,CLR,0.00,VWS V13.01,2013-01-15 09:49:00,
2013-01-15 02:54:00,-3.1,-20.5,29.90,ESE,119,0.0,0.0,42,0.00,,CLR,0.00,VWS V13.01,2013-01-15 09:54:00,
2013-01-15 02:59:00,-3.1,-20.5,29.90,ESE,119,0.0,0.0,42,0.00,,CLR,0.00,VWS V13.01,2013-01-15 09:59:00,
2013-01-15 03:04:00,-3.3,-20.6,29.90,ESE,119,0.0,0.0,42,0.00,,FEW250,0.00,VWS V13.01,2013-01-15 10:04:00,
2013-01-15 03:09:00,-3.3,-20.6,29.90,ESE,119,2.2,3.6,42,0.00,,FEW250,0.00,VWS V13.01,2013-01-15 10:09:00,
2013-01-15 03:14:00,-3.5,-20.8,29.90,ESE,119,0.0,3.6,42,0.00,,FEW250,0.00,VWS V13.01,2013-01-15 10:14:00,
2013-01-15 03:19:00,-3.5,-20.8,29.90,ESE,119,0.0,2.7,42,0.00,,FEW250,0.00,VWS V13.01,2013-01-15 10:19:00,
2013-01-15 03:24:00,-3.5,-20.8,29.90,ESE,119,0.0,2.7,42,0.00,,FEW250,0.00,VWS V13.01,2013-01-15 10:24:00,
2013-01-15 03:29:00,-3.5,-20.8,29.90,ESE,119,0.0,2.7,42,0.00,,FEW250,0.00,VWS V13.01,2013-01-15 10:29:00,
2013-01-15 03:34:00,-3.5,-20.8,29.90,ESE,119,0.0,0.0,42,0.00,,FEW250,0.00,VWS V13.01,2013-01-15 10:34:00,
2013-01-15 03:39:00,-3.5,-20.8,29.90,ESE,119,0.0,0.0,42,0.00,,FEW250,0.00,VWS V13.01,2013-01-15 10:39:00,
2013-01-15 03:44:00,-3.5,-20.8,29.90,ESE,119,0.0,0.0,42,0.00,,FEW250,0.00,VWS V13.01,2013-01-15 10:44:00,
2013-01-15 03:49:00,-3.6,-21.0,29.90,ESE,119,0.0,0.0,42,0.00,,FEW250,0.00,VWS V13.01,2013-01-15 10:49:00,
2013-01-15 03:54:00,-3.6,-21.0,29.90,ESE,119,0.0,0.0,42,0.00,,FEW250,0.00,VWS V13.01,2013-01-15 10:54:00,
2013-01-15 03:59:00,-3.8,-21.1,29.90,ESE,119,0.0,0.0,42,0.00,,FEW250,0.00,VWS V13.01,2013-01-15 10:59:00,
2013-01-15 04:04:00,-3.8,-21.1,29.90,ESE,119,0.0,0.0,42,0.00,,FEW250,0.00,VWS V13.01,2013-01-15 11:04:00,
2013-01-15 04:09:00,-3.8,-21.1,29.90,ESE,119,0.0,0.0,42,0.00,,FEW250,0.00,VWS V13.01,2013-01-15 11:09:00,
2013-01-15 04:14:00,-4.0,-21.3,29.90,ESE,119,2.2,3.1,42,0.00,,FEW250,0.00,VWS V13.01,2013-01-15 11:14:00,
2013-01-15 04:19:00,-4.0,-21.3,29.90,ESE,119,2.7,4.0,42,0.00,,FEW250,0.00,VWS V13.01,2013-01-15 11:19:00,
2013-01-15 04:24:00,-4.2,-21.5,29.90,ESE,119,2.2,4.0,42,0.00,,FEW250,0.00,VWS V13.01,2013-01-15 11:24:00,
2013-01-15 04:29:00,-4.2,-21.5,29.90,ESE,119,0.0,4.0,42,0.00,,FEW250,0.00,VWS V13.01,2013-01-15 11:29:00,
2013-01-15 04:34:00,-4.2,-21.5,29.90,ESE,120,0.0,0.0,42,0.00,,FEW250,0.00,VWS V13.01,2013-01-15 11:34:00,
2013-01-15 04:39:00,-4.2,-21.5,29.90,ESE,119,0.0,2.2,42,0.00,,FEW250,0.00,VWS V13.01,2013-01-15 11:39:00,
2013-01-15 04:44:00,-4.4,-21.6,29.90,ESE,119,0.0,2.7,42,0.00,,FEW250,0.00,VWS V13.01,2013-01-15 11:44:00,
2013-01-15 04:49:00,-4.4,-21.6,29.90,ESE,120,0.0,0.0,42,0.00,,FEW250,0.00,VWS V13.01,2013-01-15 11:49:00,
2013-01-15 04:54:00,-4.4,-21.6,29.90,ESE,120,2.2,2.7,42,0.00,,FEW250,0.00,VWS V13.01,2013-01-15 11:54:00,
2013-01-15 04:59:00,-4.4,-21.6,29.90,ESE,120,2.7,3.6,42,0.00,,FEW250,0.00,VWS V13.01,2013-01-15 11:59:00,
2013-01-15 05:04:00,-4.4,-21.6,29.90,ESE,119,2.2,3.1,42,0.00,,FEW250,0.00,VWS V13.01,2013-01-15 12:04:00,
2013-01-15 05:09:00,-4.4,-21.6,29.90,ESE,120,2.7,3.1,42,0.00,,FEW250,0.00,VWS V13.01,2013-01-15 12:09:00,
2013-01-15 05:14:00,-4.4,-21.6,29.90,ESE,120,0.0,3.1,42,0.00,,FEW250,0.00,VWS V13.01,2013-01-15 12:14:00,
2013-01-15 05:19:00,-4.2,-21.5,29.90,ESE,120,2.2,3.6,42,0.00,,FEW250,0.00,VWS V13.01,2013-01-15 12:19:00,
2013-01-15 05:24:00,-4.2,-21.5,29.90,ESE,119,0.0,3.6,42,0.00,,FEW250,0.00,VWS V13.01,2013-01-15 12:24:00,
2013-01-15 05:29:00,-4.2,-21.5,29.90,ESE,119,0.0,3.6,42,0.00,,FEW250,0.00,VWS V13.01,2013-01-15 12:29:00,
2013-01-15 05:34:00,-4.2,-21.5,29.90,ESE,120,0.0,0.0,42,0.00,,FEW250,0.00,VWS V13.01,2013-01-15 12:34:00,
2013-01-15 05:39:00,-4.2,-21.5,29.90,ESE,120,0.0,0.0,42,0.00,,FEW250,0.00,VWS V13.01,2013-01-15 12:39:00,
2013-01-15 05:44:00,-4.2,-21.5,29.90,ESE,119,0.0,0.0,42,0.00,,FEW250,0.00,VWS V13.01,2013-01-15 12:44:00,
2013-01-15 05:49:00,-4.4,-21.6,29.90,ESE,119,0.0,0.0,42,0.00,,FEW250,0.00,VWS V13.01,2013-01-15 12:49:00,
2013-01-15 05:54:00,-4.4,-21.6,29.90,ESE,120,0.0,0.0,42,0.00,,FEW250,0.00,VWS V13.01,2013-01-15 12:54:00,
2013-01-15 05:59:00,-4.4,-21.6,29.90,ESE,120,0.0,0.0,42,0.00,,FEW250,0.00,VWS V13.01,2013-01-15 12:59:00,
2013-01-15 06:04:00,-4.4,-21.6,29.90,ESE,119,0.0,0.0,42,0.00,,FEW250,0.00,VWS V13.01,2013-01-15 13:04:00,
2013-01-15 06:09:00,-4.4,-21.6,29.90,ESE,120,0.0,0.0,42,0.00,,FEW250,0.00,VWS V13.01,2013-01-15 13:09:00,
2013-01-15 06:14:00,-4.2,-21.5,29.93,ESE,120,0.0,0.0,42,0.00,,FEW250,0.00,VWS V13.01,2013-01-15 13:14:00,
2013-01-15 06:19:00,-4.2,-21.5,29.93,ESE,120,0.0,0.0,42,0.00,,FEW250,0.00,VWS V13.01,2013-01-15 13:19:00,
2013-01-15 06:24:00,-4.2,-21.5,29.93,ESE,119,0.0,0.0,42,0.00,,FEW250,0.00,VWS V13.01,2013-01-15 13:24:00,
2013-01-15 06:29:00,-4.2,-21.5,29.93,ESE,120,0.0,0.0,42,0.00,,FEW250,0.00,VWS V13.01,2013-01-15 13:29:00,
2013-01-15 06:35:00,-4.0,-21.3,29.93,ESE,119,0.0,0.0,42,0.00,,FEW250,0.00,VWS V13.01,2013-01-15 13:35:00,
2013-01-15 06:40:00,-3.8,-21.1,29.93,ESE,120,0.0,3.1,42,0.00,,FEW250,0.00,VWS V13.01,2013-01-15 13:40:00,
2013-01-15 06:45:00,-3.8,-21.1,29.93,ESE,120,0.0,3.1,42,0.00,,FEW250,0.00,VWS V13.01,2013-01-15 13:45:00,
2013-01-15 06:50:00,-3.5,-20.8,29.93,ESE,120,0.0,2.7,42,0.00,,FEW250,0.00,VWS V13.01,2013-01-15 13:50:00,
2013-01-15 06:55:00,-3.1,-20.5,29.93,ESE,121,2.7,4.0,42,0.00,,FEW250,0.00,VWS V13.01,2013-01-15 13:55:00,
2013-01-15 07:00:00,-2.6,-20.0,29.93,SE,145,2.2,4.0,42,0.00,,FEW250,0.00,VWS V13.01,2013-01-15 14:00:00,
2013-01-15 07:05:00,-1.8,-19.3,29.93,SSE,154,4.0,4.9,42,0.00,,SCT200,0.00,VWS V13.01,2013-01-15 14:05:00,
2013-01-15 07:10:00,-0.9,-18.5,29.93,SSE,153,2.2,4.9,42,0.00,,SCT200,0.00,VWS V13.01,2013-01-15 14:10:00,
2013-01-15 07:15:00,-0.2,-17.8,29.93,SSE,151,2.7,4.9,42,0.00,,SCT200,0.00,VWS V13.01,2013-01-15 14:15:00,
2013-01-15 07:20:00,0.3,-17.3,29.93,SSE,161,2.7,3.1,42,0.00,,SCT200,0.00,VWS V13.01,2013-01-15 14:20:00,
2013-01-15 07:25:00,1.2,-16.5,29.93,SSE,159,2.7,3.6,42,0.00,,SCT200,0.00,VWS V13.01,2013-01-15 14:25:00,
2013-01-15 07:30:00,1.8,-16.0,29.93,SSE,163,2.7,3.6,42,0.00,,SCT200,0.00,VWS V13.01,2013-01-15 14:30:00,
2013-01-15 07:35:00,2.7,-15.2,29.93,SSE,161,2.2,3.6,42,0.00,,SCT200,0.00,VWS V13.01,2013-01-15 14:35:00,
2013-01-15 07:40:00,3.4,-14.5,29.93,SSE,165,2.2,4.0,42,0.00,,SCT200,0.00,VWS V13.01,2013-01-15 14:40:00,
2013-01-15 07:45:00,3.7,-14.2,29.93,SSE,166,3.6,4.0,42,0.00,,SCT200,0.00,VWS V13.01,2013-01-15 14:45:00,
2013-01-15 07:50:00,4.5,-13.6,29.93,SSE,166,0.0,3.6,42,0.00,,SCT200,0.00,VWS V13.01,2013-01-15 14:50:00,
2013-01-15 07:55:00,5.2,-12.9,29.93,SSE,157,3.1,4.0,42,0.00,,SCT200,0.00,VWS V13.01,2013-01-15 14:55:00,
2013-01-15 08:00:00,5.5,-12.6,29.93,South,172,0.0,4.0,42,0.00,,SCT200,0.00,VWS V13.01,2013-01-15 15:00:00,
2013-01-15 08:05:00,6.3,-11.9,29.93,SSE,153,3.1,4.9,42,0.00,,BKN200,0.00,VWS V13.01,2013-01-15 15:05:00,
2013-01-15 08:10:00,6.8,-11.4,29.93,SSE,153,2.2,4.9,42,0.00,,BKN200,0.00,VWS V13.01,2013-01-15 15:10:00,
2013-01-15 08:15:00,7.5,-10.8,29.96,SSE,150,2.2,4.9,42,0.00,,BKN200,0.00,VWS V13.01,2013-01-15 15:15:00,
2013-01-15 08:20:00,8.1,-10.3,29.96,South,178,5.4,5.4,42,0.00,,BKN200,0.00,VWS V13.01,2013-01-15 15:20:00,
2013-01-15 08:25:00,8.8,-9.6,29.93,South,179,2.7,5.8,42,0.00,,BKN200,0.00,VWS V13.01,2013-01-15 15:25:00,
2013-01-15 08:30:00,9.5,-9.0,29.93,SSE,160,2.7,5.8,42,0.00,,BKN200,0.00,VWS V13.01,2013-01-15 15:30:00,
2013-01-15 08:35:00,10.2,-8.3,29.93,SSE,159,4.0,4.0,42,0.00,,BKN200,0.00,VWS V13.01,2013-01-15 15:35:00,
2013-01-15 08:40:00,11.1,-7.5,29.93,SE,137,4.0,6.3,42,0.00,,BKN200,0.00,VWS V13.01,2013-01-15 15:40:00,
2013-01-15 08:45:00,11.7,-7.0,29.93,ESE,117,4.0,6.3,42,0.00,,BKN200,0.00,VWS V13.01,2013-01-15 15:45:00,
2013-01-15 08:50:00,12.6,-6.2,29.93,SSE,165,4.0,5.8,42,0.00,,BKN200,0.00,VWS V13.01,2013-01-15 15:50:00,
2013-01-15 08:55:00,13.1,-5.7,29.93,SSE,162,4.0,7.6,42,0.00,,BKN200,0.00,VWS V13.01,2013-01-15 15:55:00,
2013-01-15 09:00:00,13.8,-5.0,29.93,ESE,109,3.6,3.6,42,0.00,,BKN200,0.00,VWS V13.01,2013-01-15 16:00:00,
2013-01-15 09:05:00,14.7,-2.3,29.93,SSW,209,4.0,4.9,46,0.00,,BKN120,0.00,VWS V13.01,2013-01-15 16:05:00,
2013-01-15 09:10:00,15.4,-2.1,29.93,SSE,167,3.6,5.8,45,0.00,,BKN120,0.00,VWS V13.01,2013-01-15 16:10:00,
2013-01-15 09:15:00,16.0,-2.1,29.93,SW,233,0.0,5.8,44,0.00,,BKN120,0.00,VWS V13.01,2013-01-15 16:15:00,
2013-01-15 09:20:00,16.5,-1.6,29.93,South,177,2.7,5.8,44,0.00,,BKN120,0.00,VWS V13.01,2013-01-15 16:20:00,
2013-01-15 09:25:00,16.9,-1.2,29.93,SE,137,3.6,6.3,44,0.00,,BKN120,0.00,VWS V13.01,2013-01-15 16:25:00,
2013-01-15 09:30:00,17.1,-1.6,29.93,SSE,160,5.4,7.6,43,0.00,,BKN120,0.00,VWS V13.01,2013-01-15 16:30:00,
2013-01-15 09:35:00,17.8,-2.4,29.93,South,177,2.2,6.3,40,0.00,,BKN120,0.00,VWS V13.01,2013-01-15 16:35:00,
2013-01-15 09:40:00,18.1,-2.1,29.93,SE,135,3.6,6.3,40,0.00,,BKN120,0.00,VWS V13.01,2013-01-15 16:40:00,
2013-01-15 09:45:00,18.7,-1.6,29.93,South,175,3.1,3.1,40,0.00,,BKN120,0.00,VWS V13.01,2013-01-15 16:45:00,
2013-01-15 09:50:00,19.4,-2.0,29.93,SE,132,5.8,6.3,38,0.00,,BKN120,0.00,VWS V13.01,2013-01-15 16:50:00,
2013-01-15 09:55:00,19.6,-2.5,29.93,SSE,148,4.0,6.3,37,0.00,,BKN120,0.00,VWS V13.01,2013-01-15 16:55:00,
2013-01-15 10:00:00,19.9,-2.1,29.96,South,187,2.7,7.6,37,0.00,,BKN120,0.00,VWS V13.01,2013-01-15 17:00:00,
2013-01-15 10:05:00,20.3,-1.8,29.96,SSE,155,3.1,6.3,37,0.00,,BKN090,0.00,VWS V13.01,2013-01-15 17:05:00,
2013-01-15 10:10:00,20.5,-1.6,29.93,South,182,4.0,6.3,37,0.00,,BKN090,0.00,VWS V13.01,2013-01-15 17:10:00,
2013-01-15 10:15:00,20.8,-1.3,29.93,West,271,4.0,4.5,37,0.00,,BKN090,0.00,VWS V13.01,2013-01-15 17:15:00,
2013-01-15 10:20:00,21.2,-1.6,29.93,SE,136,4.0,5.8,36,0.00,,BKN090,0.00,VWS V13.01,2013-01-15 17:20:00,
2013-01-15 10:25:00,21.6,-1.2,29.93,South,191,2.7,5.8,36,0.00,,BKN090,0.00,VWS V13.01,2013-01-15 17:25:00,
2013-01-15 10:30:00,21.9,-1.5,29.93,SSW,211,4.0,4.0,35,0.00,,BKN090,0.00,VWS V13.01,2013-01-15 17:30:00,
2013-01-15 10:35:00,22.1,-1.4,29.93,SE,139,3.1,4.9,35,0.00,,BKN090,0.00,VWS V13.01,2013-01-15 17:35:00,
2013-01-15 10:40:00,22.6,-0.9,29.93,South,188,2.7,4.9,35,0.00,,BKN090,0.00,VWS V13.01,2013-01-15 17:40:00,
2013-01-15 10:45:00,23.0,0.0,29.93,South,171,0.0,0.0,36,0.00,,BKN090,0.00,VWS V13.01,2013-01-15 17:45:00,
2013-01-15 10:50:00,23.4,-0.2,29.93,SW,224,4.9,4.9,35,0.00,,BKN090,0.00,VWS V13.01,2013-01-15 17:50:00,
2013-01-15 10:55:00,23.5,-0.1,29.93,SW,222,2.7,4.9,35,0.00,,BKN090,0.00,VWS V13.01,2013-01-15 17:55:00,
2013-01-15 11:00:00,23.9,-0.4,29.93,SSW,206,3.1,3.1,34,0.00,,BKN090,0.00,VWS V13.01,2013-01-15 18:00:00,
2013-01-15 11:05:00,24.1,-0.2,29.93,SW,214,5.4,5.4,34,0.00,,OVC080,0.00,VWS V13.01,2013-01-15 18:05:00,
2013-01-15 11:10:00,24.4,-0.5,29.93,South,178,2.7,6.3,33,0.00,,OVC080,0.00,VWS V13.01,2013-01-15 18:10:00,
2013-01-15 11:15:00,24.8,0.4,29.93,South,174,2.7,2.7,34,0.00,,OVC080,0.00,VWS V13.01,2013-01-15 18:15:00,
2013-01-15 11:20:00,25.2,0.8,29.93,SSE,165,3.1,3.6,34,0.00,,OVC080,0.00,VWS V13.01,2013-01-15 18:20:00,
2013-01-15 11:25:00,25.3,0.9,29.93,SE,135,2.7,5.8,34,0.00,,OVC080,0.00,VWS V13.01,2013-01-15 18:25:00,
2013-01-15 11:30:00,25.7,0.6,29.93,SW,221,2.2,3.6,33,0.00,,OVC080,0.00,VWS V13.01,2013-01-15 18:30:00,
2013-01-15 11:35:00,26.1,0.9,29.93,SSE,166,2.2,4.0,33,0.00,,OVC080,0.00,VWS V13.01,2013-01-15 18:35:00,
2013-01-15 11:40:00,26.4,1.2,29.90,South,171,0.0,5.4,33,0.00,,OVC080,0.00,VWS V13.01,2013-01-15 18:40:00,
2013-01-15 11:45:00,26.8,1.5,29.90,SSE,164,4.0,5.4,33,0.00,,OVC080,0.00,VWS V13.01,2013-01-15 18:45:00,
2013-01-15 11:50:00,27.1,1.9,29.90,SE,145,3.1,6.3,33,0.00,,OVC080,0.00,VWS V13.01,2013-01-15 18:50:00,
2013-01-15 11:55:00,27.5,2.2,29.90,SSE,167,2.2,6.3,33,0.00,,OVC080,0.00,VWS V13.01,2013-01-15 18:55:00,
2013-01-15 12:00:00,27.7,2.3,29.90,SSW,213,3.1,3.1,33,0.00,,OVC080,0.00,VWS V13.01,2013-01-15 19:00:00,
2013-01-15 12:05:00,28.0,2.7,29.90,SW,216,3.1,4.0,33,0.00,,OVC080,0.00,VWS V13.01,2013-01-15 19:05:00,
2013-01-15 12:10:00,28.4,3.0,29.90,South,170,2.2,4.9,33,0.00,,OVC080,0.00,VWS V13.01,2013-01-15 19:10:00,
2013-01-15 12:15:00,28.6,2.5,29.90,SW,218,0.0,2.2,32,0.00,,OVC080,0.00,VWS V13.01,2013-01-15 19:15:00,
2013-01-15 12:20:00,28.9,2.8,29.90,SW,218,2.7,5.8,32,0.00,,OVC080,0.00,VWS V13.01,2013-01-15 19:20:00,
2013-01-15 12:25:00,29.3,3.1,29.90,SE,139,2.7,5.8,32,0.00,,OVC080,0.00,VWS V13.01,2013-01-15 19:25:00,
2013-01-15 12:30:00,29.5,3.3,29.90,SSE,152,3.6,5.8,32,0.00,,OVC080,0.00,VWS V13.01,2013-01-15 19:30:00,
2013-01-15 12:35:00,29.8,3.6,29.90,SSE,166,3.6,4.0,32,0.00,,OVC080,0.00,VWS V13.01,2013-01-15 19:35:00,
2013-01-15 12:40:00,30.2,3.9,29.90,South,169,0.0,4.0,32,0.00,,OVC080,0.00,VWS V13.01,2013-01-15 19:40:00,
2013-01-15 12:45:00,30.4,3.4,29.90,SW,217,2.2,2.2,31,0.00,,OVC080,0.00,VWS V13.01,2013-01-15 19:45:00,
2013-01-15 12:50:00,30.9,3.8,29.90,SW,225,5.4,6.3,31,0.00,,OVC080,0.00,VWS V13.01,2013-01-15 19:50:00,
2013-01-15 12:55:00,31.1,4.0,29.90,SSW,205,3.6,6.3,31,0.00,,OVC080,0.00,VWS V13.01,2013-01-15 19:55:00,
2013-01-15 13:00:00,31.6,4.5,29.90,SSE,155,3.6,3.6,31,0.00,,OVC080,0.00,VWS V13.01,2013-01-15 20:00:00,
2013-01-15 13:05:00,32.2,5.0,29.90,SSW,200,0.0,3.6,31,0.00,,OVC065,0.00,VWS V13.01,2013-01-15 20:05:00,
2013-01-15 13:10:00,32.2,5.0,29.90,SSW,206,2.2,4.9,31,0.00,,OVC065,0.00,VWS V13.01,2013-01-15 20:10:00,
2013-01-15 13:15:00,32.4,5.1,29.90,SSW,208,5.8,5.8,31,0.00,,OVC065,0.00,VWS V13.01,2013-01-15 20:15:00,
2013-01-15 13:20:00,32.4,5.1,29.90,SW,216,2.2,5.8,31,0.00,,OVC065,0.00,VWS V13.01,2013-01-15 20:20:00,
2013-01-15 13:25:00,32.5,5.3,29.90,SSW,200,3.1,5.8,31,0.00,,OVC065,0.00,VWS V13.01,2013-01-15 20:25:00,
2013-01-15 13:30:00,32.7,5.4,29.90,South,174,0.0,0.0,31,0.00,,OVC065,0.00,VWS V13.01,2013-01-15 20:30:00,
2013-01-15 13:35:00,32.9,5.6,29.90,ESE,116,3.1,3.6,31,0.00,,OVC065,0.00,VWS V13.01,2013-01-15 20:35:00,
2013-01-15 13:40:00,33.1,5.8,29.90,South,170,2.7,4.0,31,0.00,,OVC065,0.00,VWS V13.01,2013-01-15 20:40:00,
2013-01-15 13:45:00,33.1,5.8,29.90,South,172,0.0,0.0,31,0.00,,OVC065,0.00,VWS V13.01,2013-01-15 20:45:00,
2013-01-15 13:50:00,33.1,5.0,29.90,SE,137,4.9,5.4,30,0.00,,OVC065,0.00,VWS V13.01,2013-01-15 20:50:00,
2013-01-15 13:55:00,33.1,5.8,29.90,South,175,2.2,5.8,31,0.00,,OVC065,0.00,VWS V13.01,2013-01-15 20:55:00,
2013-01-15 14:00:00,33.1,5.8,29.90,SW,217,2.7,3.6,31,0.00,,OVC065,0.00,VWS V13.01,2013-01-15 21:00:00,
2013-01-15 14:05:00,33.3,5.9,29.90,SSE,149,2.7,3.6,31,0.00,,OVC055,0.00,VWS V13.01,2013-01-15 21:05:00,
2013-01-15 14:10:00,33.3,5.9,29.90,SSW,193,2.7,3.6,31,0.00,,OVC055,0.00,VWS V13.01,2013-01-15 21:10:00,
2013-01-15 14:15:00,33.3,5.9,29.90,ESE,115,0.0,0.0,31,0.00,,OVC055,0.00,VWS V13.01,2013-01-15 21:15:00,
2013-01-15 14:20:00,33.3,5.9,29.90,SSE,149,2.7,3.6,31,0.00,,OVC055,0.00,VWS V13.01,2013-01-15 21:20:00,
2013-01-15 14:25:00,33.4,5.3,29.93,South,182,4.0,5.4,30,0.00,,OVC055,0.00,VWS V13.01,2013-01-15 21:25:00,
2013-01-15 14:30:00,33.3,5.2,29.93,South,183,2.2,3.1,30,0.00,,OVC055,0.00,VWS V13.01,2013-01-15 21:30:00,
2013-01-15 14:35:00,33.4,6.1,29.93,SE,124,2.7,3.6,31,0.00,,OVC055,0.00,VWS V13.01,2013-01-15 21:35:00,
2013-01-15 14:40:00,33.4,5.3,29.90,SSE,168,0.0,4.9,30,0.00,,OVC055,0.00,VWS V13.01,2013-01-15 21:40:00,
2013-01-15 14:45:00,33.6,6.2,29.90,SSW,206,2.2,2.7,31,0.00,,OVC055,0.00,VWS V13.01,2013-01-15 21:45:00,
2013-01-15 14:50:00,33.6,5.5,29.90,SE,138,3.1,4.9,30,0.00,,OVC055,0.00,VWS V13.01,2013-01-15 21:50:00,
2013-01-15 14:55:00,33.6,6.2,29.93,SSE,166,0.0,4.9,31,0.00,,OVC055,0.00,VWS V13.01,2013-01-15 21:55:00,
2013-01-15 15:00:00,33.6,6.2,29.93,SW,230,3.6,4.0,31,0.00,,OVC055,0.00,VWS V13.01,2013-01-15 22:00:00,
2013-01-15 15:06:00,33.4,5.3,29.93,South,182,3.1,5.8,30,0.00,,OVC060,0.00,VWS V13.01,2013-01-15 22:06:00,
2013-01-15 15:11:00,33.4,5.3,29.93,SSW,201,3.1,5.8,30,0.00,,OVC060,0.00,VWS V13.01,2013-01-15 22:11:00,
2013-01-15 15:16:00,33.3,5.2,29.93,SSW,213,4.0,5.4,30,0.00,,OVC060,0.00,VWS V13.01,2013-01-15 22:16:00,
2013-01-15 15:21:00,33.3,5.2,29.93,SSW,193,2.7,5.8,30,0.00,,OVC060,0.00,VWS V13.01,2013-01-15 22:21:00,
2013-01-15 15:26:00,33.3,5.2,29.93,South,190,3.6,5.8,30,0.00,,OVC060,0.00,VWS V13.01,2013-01-15 22:26:00,
2013-01-15 15:31:00,33.1,5.0,29.93,SSE,160,0.0,3.1,30,0.00,,OVC060,0.00,VWS V13.01,2013-01-15 22:31:00,
2013-01-15 15:36:00,33.1,5.0,29.93,SSE,162,0.0,3.1,30,0.00,,OVC060,0.00,VWS V13.01,2013-01-15 22:36:00,
2013-01-15 15:41:00,33.1,5.0,29.93,SE,131,3.1,6.3,30,0.00,,OVC060,0.00,VWS V13.01,2013-01-15 22:41:00,
2013-01-15 15:46:00,32.9,4.9,29.93,SE,130,4.0,4.9,30,0.00,,OVC060,0.00,VWS V13.01,2013-01-15 22:46:00,
2013-01-15 15:51:00,32.9,4.9,29.93,ESE,123,6.3,6.3,30,0.00,,OVC060,0.00,VWS V13.01,2013-01-15 22:51:00,
2013-01-15 15:56:00,32.7,4.7,29.93,SSE,152,3.1,6.3,30,0.00,,OVC060,0.00,VWS V13.01,2013-01-15 22:56:00,
2013-01-15 16:01:00,32.7,4.7,29.93,SSE,155,3.6,4.0,30,0.00,,OVC055,0.00,VWS V13.01,2013-01-15 23:01:00,
2013-01-15 16:06:00,32.5,5.3,29.93,SE,126,3.1,5.8,31,0.00,,OVC055,0.00,VWS V13.01,2013-01-15 23:06:00,
2013-01-15 16:11:00,32.5,4.6,29.93,SSE,157,0.0,5.8,30,0.00,,OVC055,0.00,VWS V13.01,2013-01-15 23:11:00,
2013-01-15 16:16:00,32.4,5.1,29.93,SSE,154,2.2,2.7,31,0.00,,OVC055,0.00,VWS V13.01,2013-01-15 23:16:00,
2013-01-15 16:21:00,32.2,5.0,29.93,South,182,3.1,3.1,31,0.00,,OVC055,0.00,VWS V13.01,2013-01-15 23:21:00,
2013-01-15 16:26:00,32.2,5.0,29.93,SSE,149,0.0,3.6,31,0.00,,OVC055,0.00,VWS V13.01,2013-01-15 23:26:00,
2013-01-15 16:31:00,32.0,4.8,29.93,SE,131,2.7,4.9,31,0.00,,OVC055,0.00,VWS V13.01,2013-01-15 23:31:00,
2013-01-15 16:36:00,31.8,3.9,29.93,SSE,158,3.1,5.4,30,0.00,,OVC055,0.00,VWS V13.01,2013-01-15 23:36:00,
2013-01-15 16:41:00,31.6,4.5,29.93,SSE,152,2.2,5.4,31,0.00,,OVC055,0.00,VWS V13.01,2013-01-15 23:41:00,
2013-01-15 16:46:00,31.5,4.3,29.93,SSE,151,3.1,3.1,31,0.00,,OVC055,0.00,VWS V13.01,2013-01-15 23:46:00,
2013-01-15 16:51:00,31.3,4.2,29.93,SSE,159,0.0,4.0,31,0.00,,OVC055,0.00,VWS V13.01,2013-01-15 23:51:00,
2013-01-15 16:56:00,31.1,4.0,29.93,SE,144,2.7,4.0,31,0.00,,OVC055,0.00,VWS V13.01,2013-01-15 23:56:00,
2013-01-15 17:01:00,31.1,4.0,29.93,SE,129,4.9,4.9,31,0.00,,OVC055,0.00,VWS V13.01,2013-01-16 00:01:00,
2013-01-15 17:06:00,30.9,3.8,29.93,SE,145,0.0,4.9,31,0.00,,OVC055,0.00,VWS V13.01,2013-01-16 00:06:00,
2013-01-15 17:11:00,30.7,3.7,29.93,SE,131,0.0,4.9,31,0.00,,OVC055,0.00,VWS V13.01,2013-01-16 00:11:00,
2013-01-15 17:16:00,30.6,3.5,29.93,SE,130,0.0,0.0,31,0.00,,OVC055,0.00,VWS V13.01,2013-01-16 00:16:00,
2013-01-15 17:21:00,30.6,3.5,29.93,SE,130,0.0,0.0,31,0.00,,OVC055,0.00,VWS V13.01,2013-01-16 00:21:00,
2013-01-15 17:26:00,30.4,3.4,29.93,SE,130,0.0,0.0,31,0.00,,OVC055,0.00,VWS V13.01,2013-01-16 00:26:00,
2013-01-15 17:31:00,30.2,3.2,29.93,SE,130,0.0,0.0,31,0.00,,OVC055,0.00,VWS V13.01,2013-01-16 00:31:00,
2013-01-15 17:36:00,30.2,3.2,29.93,SE,130,2.2,2.2,31,0.00,,OVC055,0.00,VWS V13.01,2013-01-16 00:36:00,
2013-01-15 17:41:00,30.0,3.1,29.93,SE,129,2.2,3.1,31,0.00,,OVC055,0.00,VWS V13.01,2013-01-16 00:41:00,
2013-01-15 17:46:00,29.8,2.9,29.93,SE,126,2.2,2.7,31,0.00,,OVC055,0.00,VWS V13.01,2013-01-16 00:46:00,
2013-01-15 17:51:00,29.8,3.6,29.93,SE,127,0.0,2.7,32,0.00,,OVC055,0.00,VWS V13.01,2013-01-16 00:51:00,
2013-01-15 17:56:00,29.7,3.4,29.93,SSE,147,2.7,4.0,32,0.00,,OVC055,0.00,VWS V13.01,2013-01-16 00:56:00,
2013-01-15 18:01:00,29.7,3.4,29.93,SSE,148,0.0,0.0,32,0.00,,OVC055,0.00,VWS V13.01,2013-01-16 01:01:00,
2013-01-15 18:06:00,29.5,3.3,29.93,SSE,148,0.0,3.1,32,0.00,,OVC060,0.00,VWS V13.01,2013-01-16 01:06:00,
2013-01-15 18:11:00,29.5,3.3,29.93,SE,142,0.0,3.1,32,0.00,,OVC060,0.00,VWS V13.01,2013-01-16 01:11:00,
2013-01-15 18:16:00,29.5,3.3,29.93,SE,140,3.1,3.6,32,0.00,,OVC060,0.00,VWS V13.01,2013-01-16 01:16:00,
2013-01-15 18:21:00,29.5,3.3,29.93,SE,140,0.0,3.6,32,0.00,,OVC060,0.00,VWS V13.01,2013-01-16 01:21:00,
2013-01-15 18:26:00,29.5,3.3,29.96,SE,140,0.0,3.6,32,0.00,,OVC060,0.00,VWS V13.01,2013-01-16 01:26:00,
2013-01-15 18:31:00,29.5,3.3,29.96,SE,140,0.0,0.0,32,0.00,,OVC060,0.00,VWS V13.01,2013-01-16 01:31:00,
2013-01-15 18:36:00,29.3,3.1,29.96,SE,140,0.0,0.0,32,0.00,,OVC060,0.00,VWS V13.01,2013-01-16 01:36:00,
2013-01-15 18:41:00,29.3,3.1,29.96,SE,140,0.0,0.0,32,0.00,,OVC060,0.00,VWS V13.01,2013-01-16 01:41:00,
2013-01-15 18:46:00,29.3,3.1,29.96,SE,140,0.0,0.0,32,0.00,,OVC060,0.00,VWS V13.01,2013-01-16 01:46:00,
2013-01-15 18:51:00,29.3,3.1,29.96,SE,140,0.0,0.0,32,0.00,,OVC060,0.00,VWS V13.01,2013-01-16 01:51:00,
2013-01-15 18:56:00,29.1,3.0,29.96,SE,140,0.0,0.0,32,0.00,,OVC060,0.00,VWS V13.01,2013-01-16 01:56:00,
2013-01-15 19:01:00,29.1,3.0,29.96,SSE,159,3.6,3.6,32,0.00,,OVC060,0.00,VWS V13.01,2013-01-16 02:01:00,
2013-01-15 19:06:00,29.1,3.0,29.96,SSE,163,2.7,3.6,32,0.00,,OVC060,0.00,VWS V13.01,2013-01-16 02:06:00,
2013-01-15 19:11:00,29.3,3.1,29.96,SW,221,0.0,3.6,32,0.00,,OVC060,0.00,VWS V13.01,2013-01-16 02:11:00,
2013-01-15 19:16:00,29.3,3.1,29.96,SSW,199,0.0,2.7,32,0.00,,OVC060,0.00,VWS V13.01,2013-01-16 02:16:00,
2013-01-15 19:21:00,29.3,3.1,29.96,SSW,207,0.0,3.6,32,0.00,,OVC060,0.00,VWS V13.01,2013-01-16 02:21:00,
2013-01-15 19:26:00,29.3,3.1,29.96,South,175,2.7,6.3,32,0.00,,OVC060,0.00,VWS V13.01,2013-01-16 02:26:00,
2013-01-15 19:31:00,29.3,3.1,29.96,SW,215,2.7,3.1,32,0.00,,OVC060,0.00,VWS V13.01,2013-01-16 02:31:00,
2013-01-15 19:36:00,29.5,3.3,29.96,SSW,205,0.0,6.3,32,0.00,,OVC060,0.00,VWS V13.01,2013-01-16 02:36:00,
2013-01-15 19:41:00,29.5,3.3,29.96,SSW,211,5.4,6.3,32,0.00,,OVC060,0.00,VWS V13.01,2013-01-16 02:41:00,
2013-01-15 19:46:00,29.5,3.3,29.96,SSW,207,0.0,5.4,32,0.00,,OVC060,0.00,VWS V13.01,2013-01-16 02:46:00,
2013-01-15 19:51:00,29.7,3.4,29.96,SW,221,2.2,5.4,32,0.00,,OVC060,0.00,VWS V13.01,2013-01-16 02:51:00,
2013-01-15 19:56:00,29.8,3.6,29.96,SSW,205,3.1,5.8,32,0.00,,OVC060,0.00,VWS V13.01,2013-01-16 02:56:00,
2013-01-15 20:01:00,29.8,3.6,29.96,SW,219,3.6,4.0,32,0.00,,OVC065,0.00,VWS V13.01,2013-01-16 03:01:00,
2013-01-15 20:06:00,30.0,3.8,29.96,SSW,206,2.2,4.0,32,0.00,,OVC065,0.00,VWS V13.01,2013-01-16 03:06:00,
2013-01-15 20:11:00,30.0,3.8,29.96,South,182,0.0,4.9,32,0.00,,OVC065,0.00,VWS V13.01,2013-01-16 03:11:00,
2013-01-15 20:16:00,30.0,3.8,29.96,South,180,0.0,0.0,32,0.00,,OVC065,0.00,VWS V13.01,2013-01-16 03:16:00,
2013-01-15 20:21:00,29.8,3.6,29.96,South,181,0.0,2.7,32,0.00,,OVC065,0.00,VWS V13.01,2013-01-16 03:21:00,
2013-01-15 20:26:00,29.8,3.6,29.96,SSW,193,0.0,2.7,32,0.00,,OVC065,0.00,VWS V13.01,2013-01-16 03:26:00,
2013-01-15 20:32:00,29.8,3.6,29.96,SSW,193,0.0,0.0,32,0.00,,OVC065,0.00,VWS V13.01,2013-01-16 03:32:00,
2013-01-15 20:37:00,29.8,3.6,29.96,South,187,0.0,2.7,32,0.00,,OVC065,0.00,VWS V13.01,2013-01-16 03:37:00,
2013-01-15 20:42:00,29.8,3.6,29.96,SSE,162,0.0,3.6,32,0.00,,OVC065,0.00,VWS V13.01,2013-01-16 03:42:00,
2013-01-15 20:47:00,29.8,3.6,29.96,SE,137,0.0,2.7,32,0.00,,OVC065,0.00,VWS V13.01,2013-01-16 03:47:00,
2013-01-15 20:52:00,29.8,3.6,29.96,SE,136,2.7,3.1,32,0.00,,OVC065,0.00,VWS V13.01,2013-01-16 03:52:00,
2013-01-15 20:57:00,29.8,3.6,29.96,South,170,2.7,4.0,32,0.00,,OVC065,0.00,VWS V13.01,2013-01-16 03:57:00,
2013-01-15 21:02:00,29.8,3.6,29.96,South,180,2.7,2.7,32,0.00,,OVC065,0.00,VWS V13.01,2013-01-16 04:02:00,
2013-01-15 21:07:00,29.7,3.4,29.96,SSW,195,0.0,4.0,32,0.00,,OVC065,0.00,VWS V13.01,2013-01-16 04:07:00,
2013-01-15 21:12:00,29.7,3.4,29.96,South,186,2.7,4.0,32,0.00,,OVC065,0.00,VWS V13.01,2013-01-16 04:12:00,
2013-01-15 21:17:00,29.7,3.4,29.96,ESE,121,0.0,3.6,32,0.00,,OVC065,0.00,VWS V13.01,2013-01-16 04:17:00,
2013-01-15 21:22:00,29.7,3.4,29.96,South,171,4.0,4.0,32,0.00,,OVC065,0.00,VWS V13.01,2013-01-16 04:22:00,
2013-01-15 21:27:00,29.7,3.4,29.96,SSE,165,0.0,4.0,32,0.00,,OVC065,0.00,VWS V13.01,2013-01-16 04:27:00,
2013-01-15 21:32:00,29.7,3.4,29.96,SSE,162,2.2,3.6,32,0.00,,OVC065,0.00,VWS V13.01,2013-01-16 04:32:00,
2013-01-15 21:37:00,29.7,3.4,29.96,SSE,163,0.0,3.6,32,0.00,,OVC065,0.00,VWS V13.01,2013-01-16 04:37:00,
2013-01-15 21:42:00,29.7,3.4,29.96,SSE,163,0.0,3.6,32,0.00,,OVC065,0.00,VWS V13.01,2013-01-16 04:42:00,
2013-01-15 21:47:00,29.7,3.4,29.96,SSE,163,0.0,0.0,32,0.00,,OVC065,0.00,VWS V13.01,2013-01-16 04:47:00,
2013-01-15 21:52:00,29.7,3.4,29.96,SSE,162,2.7,2.7,32,0.00,,OVC065,0.00,VWS V13.01,2013-01-16 04:52:00,
2013-01-15 21:57:00,29.7,3.4,29.96,SSE,147,2.2,4.9,32,0.00,,OVC065,0.00,VWS V13.01,2013-01-16 04:57:00,
2013-01-15 22:00:00,29.7,3.4,29.96,SSE,147,2.2,4.9,32,0.00,,OVC065,0.00,VWS V13.01,2013-01-16 05:00:00,
2013-01-15 22:02:00,29.7,3.4,29.96,SSE,147,3.1,3.1,32,0.00,,OVC060,0.00,VWS V13.01,2013-01-16 05:02:00,
2013-01-15 22:03:00,29.7,3.4,29.96,SE,146,2.7,3.1,32,0.00,,OVC060,0.00,VWS V13.01,2013-01-16 05:03:00,
2013-01-15 22:08:00,29.5,3.3,29.96,SE,146,3.1,3.1,32,0.00,,OVC060,0.00,VWS V13.01,2013-01-16 05:08:00,
2013-01-15 22:13:00,29.7,3.4,29.96,South,176,2.2,3.6,32,0.00,,OVC060,0.00,VWS V13.01,2013-01-16 05:13:00,
2013-01-15 22:18:00,29.7,3.4,29.96,ESE,111,2.2,3.1,32,0.00,,OVC060,0.00,VWS V13.01,2013-01-16 05:18:00,
2013-01-15 22:23:00,29.7,3.4,29.96,ESE,111,2.2,3.1,32,0.00,,OVC060,0.00,VWS V13.01,2013-01-16 05:23:00,
2013-01-15 22:28:00,29.7,3.4,29.96,ESE,110,0.0,3.1,32,0.00,,OVC060,0.00,VWS V13.01,2013-01-16 05:28:00,
2013-01-15 22:33:00,29.7,3.4,29.96,ESE,109,2.2,3.1,32,0.00,,OVC060,0.00,VWS V13.01,2013-01-16 05:33:00,
2013-01-15 22:38:00,29.5,3.3,29.96,ESE,109,0.0,3.1,32,0.00,,OVC060,0.00,VWS V13.01,2013-01-16 05:38:00,
2013-01-15 22:43:00,29.5,3.3,29.96,SW,223,3.6,4.0,32,0.00,,OVC060,0.00,VWS V13.01,2013-01-16 05:43:00,
2013-01-15 22:48:00,29.7,3.4,29.96,SW,223,0.0,2.2,32,0.00,,OVC060,0.00,VWS V13.01,2013-01-16 05:48:00,
2013-01-15 22:53:00,29.7,4.1,29.96,ESE,107,4.0,4.0,33,0.00,,OVC060,0.00,VWS V13.01,2013-01-16 05:53:00,
2013-01-15 22:58:00,29.5,3.9,29.96,ESE,107,0.0,4.0,33,0.00,,OVC060,0.00,VWS V13.01,2013-01-16 05:58:00,
2013-01-15 23:03:00,29.5,3.9,29.96,ESE,107,0.0,0.0,33,0.00,,OVC060,0.00,VWS V13.01,2013-01-16 06:03:00,
2013-01-15 23:08:00,29.5,3.9,29.96,ESE,107,0.0,0.0,33,0.00,,OVC060,0.00,VWS V13.01,2013-01-16 06:08:00,
2013-01-15 23:14:00,29.5,3.9,29.96,ESE,107,0.0,0.0,33,0.00,,OVC060,0.00,VWS V13.01,2013-01-16 06:14:00,
2013-01-15 23:19:00,29.3,3.8,29.96,ESE,107,0.0,0.0,33,0.00,,OVC060,0.00,VWS V13.01,2013-01-16 06:19:00,
2013-01-15 23:24:00,29.1,3.6,29.96,SSE,155,0.0,2.2,33,0.00,,OVC060,0.00,VWS V13.01,2013-01-16 06:24:00,
2013-01-15 23:29:00,29.1,3.6,29.96,SSE,155,0.0,2.2,33,0.00,,OVC060,0.00,VWS V13.01,2013-01-16 06:29:00,
2013-01-15 23:34:00,29.1,3.6,29.96,SSE,155,0.0,0.0,33,0.00,,OVC060,0.00,VWS V13.01,2013-01-16 06:34:00,
2013-01-15 23:39:00,28.9,3.5,29.96,SSE,155,0.0,0.0,33,0.00,,OVC060,0.00,VWS V13.01,2013-01-16 06:39:00,
2013-01-15 23:44:00,28.9,3.5,29.96,SSE,155,0.0,0.0,33,0.00,,OVC060,0.00,VWS V13.01,2013-01-16 06:44:00,
2013-01-15 23:49:00,28.9,3.5,29.96,SE,141,0.0,0.0,33,0.00,,OVC060,0.00,VWS V13.01,2013-01-16 06:49:00,
2013-01-15 23:54:00,28.9,3.5,29.96,SE,141,0.0,0.0,33,0.00,,OVC060,0.00,VWS V13.01,2013-01-16 06:54:00,
2013-01-15 23:59:00,28.6,3.1,29.96,SE,141,0.0,0.0,33,0.00,,OVC060,0.00,VWS V13.01,2013-01-16 06:59:00,